Wind_Speed
21 21 21 22 23 23 21 19 19 20 20 20 20 19 19 19 18 19 18 18 18 18 17 17 16 15 15 15 14 14 14 14 13 12 12 12 11 11 11 11 11 10 9 9 8 8 7 7 8
22 23 23 24 24 22 20 20 20 20 21 21 21 21 20 20 19 19 19 19 19 19 18 18 18 17 16 16 16 15 15 15 14 14 13 13 13 13 12 12 12 11 11 10 10 9 9 8 9
23 24 24 24 24 21 20 21 22 23 22 22 22 22 22 21 21 21 21 21 21 20 20 20 20 19 18 18 18 17 17 17 16 15 14 14 14 14 14 13 13 13 13 13 12 11 11 10 10
23 24 25 25 23 21 22 23 24 24 24 23 23 23 23 22 22 22 22 22 22 22 22 21 21 21 20 20 20 19 19 18 18 17 17 16 16 16 15 15 14 14 14 14 14 14 14 13 12
24 25 25 25 23 22 22 24 25 25 25 25 25 25 24 24 24 24 23 23 23 23 23 22 22 22 22 22 21 21 21 20 20 19 19 18 18 17 17 17 16 16 16 15 16 16 16 15 15
25 25 26 24 23 23 24 25 26 26 27 27 27 27 26 26 25 25 25 25 24 23 24 24 24 24 24 23 23 23 22 22 22 21 21 20 20 19 19 19 18 18 17 17 17 17 17 17 17
26 26 26 24 24 24 24 26 27 28 28 29 29 29 28 27 27 26 26 26 26 25 25 24 25 25 25 25 25 24 24 23 23 23 22 22 22 21 21 21 20 20 20 19 19 19 18 18 19
27 28 27 26 25 25 26 27 28 29 29 30 31 30 29 29 29 28 28 28 27 27 26 26 26 26 26 26 26 26 26 25 24 24 24 24 23 23 23 23 22 22 22 22 21 21 21 21 21
29 29 28 26 27 27 28 29 30 30 30 31 31 31 31 31 31 30 30 30 29 28 28 28 28 27 27 27 27 28 28 27 27 26 26 25 25 25 25 25 25 25 24 24 24 24 23 23 23
29 29 27 28 29 29 30 30 31 31 31 31 32 33 33 33 33 33 32 31 31 31 31 30 30 30 29 29 29 29 29 29 29 28 28 28 27 27 27 27 27 27 27 27 27 26 26 26 26
30 30 29 30 30 31 31 32 32 32 32 33 34 34 35 35 35 34 34 33 33 33 33 32 32 32 32 32 32 31 31 31 31 31 30 30 30 29 29 29 29 29 29 29 29 29 29 28 28
32 31 31 31 32 32 33 33 33 33 33 34 35 36 35 35 35 35 36 35 35 35 34 34 34 34 34 34 34 34 33 33 33 33 32 32 32 32 32 31 31 31 31 31 31 31 31 31 30
33 32 33 33 33 34 34 34 34 34 35 35 36 36 37 37 37 37 37 37 37 37 37 37 36 36 36 36 36 35 35 35 35 35 34 34 34 34 33 33 33 33 33 33 34 33 33 32 32
34 34 34 34 35 36 36 36 36 35 36 37 36 37 37 38 39 39 39 39 39 39 39 39 39 39 38 38 38 38 38 38 37 37 37 36 36 36 36 35 35 35 35 35 35 35 35 34 34
35 36 36 36 37 38 38 38 37 37 38 38 38 38 39 39 40 40 40 41 41 41 41 41 41 41 40 40 40 40 40 40 40 40 39 39 38 38 38 38 38 38 38 37 37 37 37 37 37
36 37 38 37 38 39 40 39 38 39 40 40 40 40 41 41 41 42 42 43 43 43 42 42 42 42 42 42 42 43 42 42 42 41 41 41 41 40 40 40 40 40 40 40 39 39 39 38 38
37 38 39 39 39 40 41 40 39 40 41 41 42 42 42 43 43 44 44 45 45 44 44 43 43 43 43 44 44 44 44 44 43 43 43 43 43 43 42 42 42 41 41 41 41 41 41 41 40
37 38 39 39 40 41 42 41 41 41 42 42 42 42 43 43 44 45 46 46 46 46 46 46 45 45 45 45 46 46 45 45 45 45 45 45 45 44 44 44 44 44 43 43 43 43 43 43 42
38 38 38 39 40 41 42 41 41 42 43 43 43 43 43 44 44 45 46 47 47 47 48 48 47 47 47 47 47 47 47 47 47 47 46 46 46 46 46 46 46 46 46 45 45 45 45 45 45
38 38 38 39 40 41 42 42 41 42 43 43 43 44 44 44 45 45 46 47 47 47 48 48 48 48 48 48 48 48 48 48 48 48 48 47 48 48 47 47 47 47 47 47 47 47 47 47 47
37 38 39 41 41 42 43 43 41 41 42 43 43 44 45 45 45 45 46 46 47 47 47 48 49 49 49 50 50 50 50 50 49 49 50 49 49 49 48 48 48 48 48 48 48 48 48 49 49
36 37 39 40 41 41 42 44 40 40 41 42 43 44 44 45 45 46 46 47 47 48 48 49 49 50 51 52 52 52 52 52 51 51 51 52 51 51 51 51 50 50 50 50 50 51 51 51 51
37 38 39 39 40 42 41 44 41 40 40 41 42 43 44 44 44 45 46 46 47 48 49 49 50 51 52 53 54 54 54 54 53 53 53 53 52 53 53 53 52 52 52 51 51 52 52 52 52
37 38 39 39 40 41 40 42 42 40 40 40 41 42 43 44 44 45 45 46 46 47 49 50 50 51 52 54 55 55 55 55 55 54 54 54 54 53 53 54 54 54 54 53 52 52 53 54 54
37 37 39 40 40 41 40 41 41 39 38 39 40 40 41 42 43 44 45 46 46 47 48 49 50 51 52 53 55 55 56 57 57 56 56 57 56 55 54 54 55 55 55 55 55 54 54 54 54
36 36 37 39 40 41 40 40 38 37 37 37 38 38 40 41 42 43 44 45 46 47 48 49 51 51 52 53 54 55 56 57 57 57 57 57 57 57 57 55 55 56 56 56 56 56 57 55 55
35 36 36 38 39 40 39 38 36 35 36 37 37 38 39 40 41 42 43 44 45 46 47 49 50 51 52 53 54 55 56 57 57 58 58 58 58 58 58 58 56 56 57 57 57 57 58 57 56
34 34 35 36 38 39 39 38 37 36 37 38 39 39 39 40 41 42 43 44 45 46 47 48 49 51 51 52 54 55 56 57 57 58 59 59 59 59 59 59 58 57 57 58 58 58 58 59 58
34 34 35 36 37 39 40 38 38 38 39 38 39 39 40 40 40 41 42 43 44 46 46 48 49 50 51 52 53 54 56 57 57 58 59 60 60 60 60 61 60 59 58 58 58 59 59 59 59
34 35 35 36 37 38 40 39 38 39 39 39 39 39 39 40 40 41 42 43 44 46 47 47 48 49 50 51 53 54 55 57 57 58 60 61 61 61 61 61 61 61 61 60 60 60 60 60 60
Wind_Direction
254 254 252 251 252 252 252 250 249 247 245 244 243 244 246 246 245 242 241 239 239 238 238 239 240 240 240 239 239 240 241 241 240 239 239 238 239 238 237 237 237 237 236 236 239 240 243 245 243
253 253 253 252 252 252 250 248 247 246 245 244 243 243 245 246 245 243 241 239 239 239 239 239 240 242 241 241 241 242 242 242 242 242 241 241 240 238 238 238 240 241 239 238 239 242 243 246 245
253 253 254 254 254 252 250 247 247 247 246 246 246 246 245 246 246 245 243 242 242 242 241 240 241 242 243 242 243 244 243 243 243 244 243 243 242 241 240 240 240 240 240 240 240 243 245 248 247
253 253 253 254 254 252 249 247 247 247 247 247 248 248 248 247 247 247 246 244 244 245 244 243 243 243 244 243 243 244 244 244 244 244 244 244 244 243 242 241 240 239 241 243 244 245 247 249 249
253 253 254 254 254 252 250 248 247 246 247 248 249 250 249 248 248 248 248 247 247 247 246 245 245 244 244 244 244 244 244 244 244 244 244 245 245 246 244 243 242 241 243 245 247 247 248 250 250
254 254 254 254 253 251 250 249 247 246 247 249 250 251 251 249 248 248 248 248 249 249 249 247 247 247 246 244 244 245 245 245 244 244 245 246 247 249 248 246 245 244 244 246 249 250 251 252 252
257 257 256 255 253 252 251 250 249 249 249 249 250 251 251 250 248 247 246 247 248 250 250 249 247 247 246 246 244 244 246 246 247 246 246 246 247 248 249 249 249 248 247 248 250 253 254 254 254
259 258 258 257 256 254 252 251 250 250 249 250 250 251 250 250 250 248 247 247 247 248 249 249 247 247 247 246 246 245 246 247 248 249 248 248 249 249 250 251 251 251 250 250 251 254 255 256 256
260 260 260 259 258 256 254 252 251 251 251 250 250 250 250 250 250 250 249 248 248 248 249 249 249 248 248 248 247 246 246 247 248 249 250 250 251 251 252 253 253 253 252 252 253 255 256 258 258
261 262 262 260 259 257 255 253 252 251 251 250 250 250 250 250 250 250 249 249 249 250 250 250 249 249 249 249 248 248 248 249 250 250 251 251 252 252 253 254 255 255 255 255 255 255 256 258 259
263 264 263 261 260 258 256 253 253 252 251 251 251 251 250 250 250 250 250 250 250 250 251 251 250 250 250 250 250 250 251 251 252 251 251 252 252 253 253 254 256 257 257 257 256 256 256 258 258
265 264 263 261 260 258 257 255 254 253 252 252 252 252 251 251 251 251 251 251 251 252 252 252 252 251 251 251 251 251 251 252 252 252 253 253 253 253 254 254 256 257 258 258 257 257 257 257 257
265 263 262 261 260 259 258 256 255 254 253 252 252 252 252 252 252 252 252 252 252 252 253 252 252 252 252 252 252 252 252 252 253 253 253 253 255 255 255 256 257 257 258 258 258 258 257 257 257
264 263 261 260 260 259 259 258 257 255 253 253 253 252 252 252 252 253 253 253 253 253 253 253 253 253 253 252 252 252 252 252 252 253 254 254 254 256 257 257 257 257 258 258 258 258 258 257 258
264 263 261 261 260 260 259 258 258 256 255 254 254 254 254 254 254 254 254 254 254 254 253 253 253 253 253 252 252 252 252 253 253 253 254 254 255 256 257 258 257 257 257 258 258 258 259 259 258
264 263 262 261 261 261 261 260 260 258 256 256 255 255 255 255 255 254 254 254 254 255 254 254 253 253 253 252 252 252 252 252 253 254 255 255 255 256 257 257 258 258 258 257 258 258 259 260 259
265 264 263 262 262 262 262 262 260 259 258 257 257 256 256 256 255 255 255 254 254 254 255 254 253 253 253 253 252 252 252 252 253 254 254 255 255 256 256 257 258 258 258 258 258 258 259 259 259
266 266 265 264 264 263 263 262 261 261 260 259 258 258 258 257 256 256 255 255 255 254 254 254 253 253 253 253 253 253 253 253 253 253 254 255 255 256 256 257 258 258 258 259 259 259 259 259 258
267 267 266 265 265 264 264 262 261 261 261 260 259 259 258 258 257 256 255 255 255 255 254 254 254 254 254 254 254 253 253 253 254 254 254 255 256 256 256 257 258 258 259 260 260 260 259 259 258
268 267 267 266 265 265 264 263 262 261 261 261 260 260 259 258 258 257 257 256 255 255 255 255 255 254 254 253 253 253 253 253 254 254 254 255 256 256 257 258 259 259 260 261 261 261 260 259 258
269 269 269 269 268 267 267 264 263 263 263 263 262 261 261 260 259 258 258 257 255 255 256 256 255 254 254 253 253 253 254 254 254 255 254 255 257 257 257 258 258 259 259 260 261 261 260 260 259
271 270 270 271 271 270 269 269 264 264 264 263 263 262 261 260 259 258 258 257 256 256 255 256 255 254 254 254 253 254 254 254 255 255 255 255 256 257 257 258 258 259 260 260 261 261 261 260 259
272 272 271 271 271 271 271 272 269 268 266 264 263 262 261 260 259 258 258 258 257 256 255 255 255 255 254 254 254 254 254 254 254 255 255 255 256 257 257 257 258 258 259 260 260 261 261 260 259
273 273 272 271 272 272 274 274 273 272 269 266 264 263 262 261 260 259 258 257 257 256 256 256 256 256 255 255 255 255 255 254 255 255 255 255 256 257 257 257 258 259 259 260 261 261 261 261 260
274 274 274 274 273 275 275 275 277 275 272 269 267 265 264 262 261 260 259 259 258 258 257 257 257 257 257 257 256 256 255 255 255 255 255 255 256 257 258 258 258 260 260 260 260 261 261 261 260
275 275 275 276 276 276 276 276 277 276 274 272 269 267 266 265 264 263 261 260 259 259 259 258 258 258 259 258 258 257 256 256 255 255 256 256 256 256 257 259 258 259 259 260 260 260 260 261 260
275 274 275 276 277 277 276 275 275 274 272 271 269 268 267 266 265 264 263 262 261 261 260 260 260 260 260 259 259 258 258 257 257 256 256 257 257 257 257 258 259 259 258 258 259 260 260 260 260
276 276 275 276 277 278 277 277 277 274 273 272 270 269 268 267 266 265 265 264 263 263 262 261 261 261 261 260 260 260 259 258 258 257 257 257 257 257 257 258 258 259 259 259 259 259 260 260 260
277 276 275 276 277 279 280 280 279 277 275 274 273 272 271 270 268 267 266 265 265 264 264 263 262 262 261 261 261 261 260 260 259 258 258 257 258 258 258 258 259 259 259 259 259 259 259 260 261
277 277 276 276 277 277 279 280 279 279 277 275 274 274 273 272 269 268 267 266 265 265 265 264 263 263 262 262 262 262 262 262 261 260 259 258 258 258 259 259 259 258 259 259 259 260 260 260 261
Height
5783 5784 5785 5786 5788 5789 5790 5793 5794 5796 5797 5799 5800 5801 5803 5805 5807 5811 5810 5810 5811 5813 5814 5815 5817 5818 5819 5821 5822 5824 5825 5826 5828 5829 5830 5831 5832 5834 5835 5836 5838 5839 5840 5841 5842 5844 5845 5846 5847
5779 5780 5781 5782 5783 5785 5788 5789 5791 5792 5793 5795 5796 5798 5799 5801 5803 5804 5806 5807 5808 5810 5811 5812 5814 5815 5817 5818 5820 5821 5823 5824 5825 5827 5828 5829 5830 5831 5833 5834 5836 5837 5838 5839 5841 5842 5843 5844 5845
5775 5775 5777 5778 5779 5781 5784 5785 5787 5788 5789 5791 5793 5794 5796 5798 5799 5801 5802 5803 5805 5806 5808 5809 5811 5812 5813 5815 5816 5818 5820 5821 5822 5824 5825 5827 5828 5829 5831 5832 5833 5835 5836 5837 5838 5840 5841 5842 5843
5770 5771 5772 5774 5775 5778 5779 5781 5782 5783 5785 5787 5789 5790 5792 5794 5796 5797 5798 5800 5801 5803 5804 5806 5807 5809 5810 5811 5813 5815 5816 5818 5819 5821 5822 5824 5825 5827 5828 5829 5831 5832 5833 5835 5836 5837 5838 5839 5841
5766 5767 5768 5769 5772 5774 5775 5776 5777 5779 5781 5783 5784 5786 5788 5790 5791 5793 5794 5796 5797 5799 5800 5802 5803 5805 5806 5808 5809 5811 5812 5814 5816 5817 5819 5820 5822 5823 5825 5826 5828 5829 5830 5831 5833 5834 5835 5836 5838
5761 5762 5763 5765 5767 5769 5770 5771 5772 5774 5776 5778 5779 5781 5783 5785 5786 5788 5790 5791 5793 5794 5796 5798 5799 5801 5803 5804 5806 5807 5809 5810 5812 5814 5815 5817 5818 5820 5821 5823 5824 5826 5827 5828 5829 5830 5832 5833 5834
5757 5757 5758 5760 5762 5764 5766 5766 5767 5769 5771 5773 5774 5776 5778 5780 5781 5783 5784 5786 5788 5790 5791 5793 5795 5796 5798 5800 5801 5803 5804 5806 5808 5809 5811 5812 5814 5816 5817 5819 5820 5822 5823 5824 5825 5827 5828 5829 5831
5751 5752 5753 5755 5757 5759 5760 5761 5762 5763 5765 5767 5769 5771 5773 5774 5775 5777 5779 5781 5783 5785 5786 5788 5790 5791 5793 5795 5796 5798 5800 5801 5803 5805 5806 5808 5809 5811 5813 5814 5816 5817 5819 5820 5821 5822 5824 5825 5826
5745 5747 5748 5750 5751 5753 5754 5755 5756 5757 5759 5761 5763 5765 5767 5768 5769 5772 5774 5776 5777 5779 5781 5782 5784 5786 5788 5789 5791 5793 5794 5796 5798 5800 5801 5803 5804 5806 5808 5809 5811 5812 5814 5815 5816 5818 5819 5820 5822
5739 5740 5743 5745 5745 5746 5747 5748 5750 5751 5753 5755 5756 5758 5759 5761 5763 5765 5767 5769 5771 5773 5775 5776 5778 5780 5782 5784 5785 5787 5789 5790 5792 5794 5796 5797 5799 5800 5802 5804 5805 5807 5808 5810 5811 5812 5814 5815 5816
5733 5735 5737 5737 5738 5739 5740 5741 5743 5744 5747 5748 5749 5750 5752 5754 5756 5758 5760 5762 5764 5766 5768 5770 5772 5774 5775 5777 5779 5781 5782 5784 5786 5788 5789 5791 5793 5794 5796 5798 5799 5801 5802 5804 5805 5806 5808 5809 5810
5727 5728 5729 5730 5730 5731 5732 5734 5735 5737 5739 5740 5741 5743 5745 5747 5749 5751 5752 5754 5756 5758 5760 5762 5764 5766 5768 5770 5772 5774 5775 5777 5779 5781 5783 5784 5786 5788 5789 5791 5793 5794 5796 5797 5799 5800 5801 5802 5804
5719 5721 5721 5722 5722 5723 5724 5726 5727 5729 5731 5732 5733 5735 5737 5739 5741 5742 5744 5746 5748 5750 5752 5754 5756 5758 5760 5762 5764 5766 5768 5770 5772 5773 5775 5777 5779 5780 5782 5784 5785 5787 5788 5790 5791 5793 5794 5796 5797
5712 5712 5713 5714 5714 5715 5716 5718 5719 5721 5722 5723 5725 5727 5729 5730 5732 5734 5736 5737 5739 5741 5743 5745 5747 5749 5751 5753 5756 5758 5760 5761 5763 5765 5767 5769 5771 5773 5774 5776 5777 5779 5780 5782 5783 5785 5787 5788 5789
5703 5704 5705 5705 5706 5706 5707 5709 5711 5712 5713 5714 5716 5718 5719 5721 5723 5725 5727 5728 5730 5732 5734 5736 5738 5740 5742 5744 5746 5748 5751 5753 5754 5757 5759 5760 5762 5764 5766 5768 5769 5770 5772 5773 5775 5776 5778 5780 5781
5694 5694 5695 5697 5696 5696 5698 5700 5702 5702 5703 5704 5706 5708 5710 5711 5713 5715 5716 5718 5720 5722 5724 5726 5728 5730 5732 5734 5736 5738 5741 5743 5745 5747 5749 5751 5753 5755 5756 5758 5760 5761 5762 5764 5766 5767 5769 5771 5772
5684 5685 5686 5687 5687 5686 5687 5690 5692 5691 5692 5694 5696 5697 5699 5701 5702 5704 5705 5707 5709 5711 5713 5715 5717 5720 5722 5724 5726 5728 5731 5733 5735 5737 5739 5741 5743 5745 5746 5748 5750 5751 5752 5754 5756 5757 5759 5761 5763
5676 5675 5676 5676 5676 5676 5676 5679 5680 5680 5681 5683 5684 5686 5687 5689 5691 5692 5694 5696 5698 5700 5702 5704 5706 5709 5711 5713 5715 5718 5720 5722 5724 5726 5728 5730 5732 5734 5736 5738 5739 5741 5742 5744 5745 5747 5749 5751 5752
5664 5664 5665 5665 5664 5664 5665 5667 5669 5669 5670 5672 5673 5674 5676 5677 5679 5680 5682 5684 5686 5688 5690 5693 5695 5697 5700 5702 5704 5707 5709 5711 5713 5715 5717 5719 5721 5723 5724 5726 5728 5730 5731 5733 5734 5736 5738 5739 5741
5654 5654 5654 5654 5653 5653 5653 5655 5657 5658 5659 5660 5661 5662 5664 5665 5666 5668 5670 5672 5674 5676 5678 5681 5683 5685 5688 5690 5692 5695 5697 5699 5702 5704 5706 5707 5709 5711 5713 5715 5716 5718 5720 5721 5723 5724 5726 5727 5729
5644 5644 5644 5643 5643 5642 5642 5644 5647 5648 5648 5648 5649 5650 5651 5653 5654 5656 5658 5660 5662 5664 5666 5668 5671 5673 5675 5677 5679 5682 5684 5687 5690 5692 5694 5696 5697 5699 5701 5703 5704 5706 5707 5709 5710 5712 5713 5715 5717
5635 5634 5633 5632 5631 5631 5631 5630 5636 5637 5637 5637 5637 5638 5639 5640 5641 5643 5645 5647 5649 5651 5653 5655 5657 5660 5662 5664 5666 5669 5672 5675 5677 5679 5681 5683 5685 5686 5688 5690 5691 5693 5694 5696 5697 5699 5700 5702 5703
5625 5623 5623 5621 5620 5620 5620 5619 5624 5625 5625 5626 5626 5626 5626 5628 5629 5630 5632 5634 5636 5638 5640 5642 5644 5646 5648 5651 5653 5656 5658 5661 5663 5665 5667 5669 5671 5673 5675 5676 5678 5680 5681 5682 5684 5685 5687 5688 5690
5614 5613 5612 5611 5609 5610 5611 5609 5611 5613 5614 5613 5614 5614 5614 5615 5616 5618 5619 5621 5622 5624 5626 5628 5630 5632 5634 5637 5639 5641 5644 5646 5648 5651 5653 5655 5657 5659 5661 5663 5664 5666 5667 5669 5670 5671 5673 5674 5676
5604 5603 5601 5599 5599 5600 5601 5598 5601 5601 5601 5601 5602 5602 5602 5603 5604 5605 5606 5608 5609 5611 5612 5614 5616 5618 5620 5622 5624 5626 5629 5631 5634 5636 5638 5640 5642 5644 5646 5648 5649 5651 5653 5654 5656 5657 5658 5660 5661
5594 5593 5593 5590 5589 5589 5589 5588 5591 5591 5590 5589 5590 5590 5590 5590 5591 5592 5593 5594 5596 5597 5598 5600 5601 5603 5605 5607 5609 5611 5613 5615 5618 5620 5622 5625 5627 5629 5631 5632 5634 5636 5638 5639 5641 5642 5644 5645 5647
5585 5584 5583 5581 5579 5578 5578 5579 5581 5580 5579 5579 5579 5579 5579 5579 5579 5580 5581 5582 5583 5584 5585 5586 5587 5589 5590 5592 5594 5596 5598 5600 5602 5604 5607 5609 5611 5613 5615 5617 5619 5620 5622 5624 5625 5627 5628 5630 5632
5576 5575 5574 5571 5569 5567 5568 5569 5571 5570 5569 5568 5568 5568 5567 5568 5568 5568 5568 5569 5570 5571 5572 5572 5573 5575 5576 5577 5579 5580 5582 5584 5586 5588 5591 5593 5595 5597 5599 5601 5603 5604 5606 5607 5609 5611 5613 5614 5616
5567 5566 5564 5562 5561 5559 5558 5562 5560 5559 5558 5558 5557 5557 5556 5556 5556 5556 5556 5557 5557 5558 5558 5559 5560 5560 5561 5562 5563 5565 5566 5568 5569 5572 5574 5576 5578 5580 5582 5584 5586 5588 5589 5591 5593 5595 5596 5598 5600
5557 5557 5555 5554 5552 5550 5549 5553 5550 5548 5547 5546 5546 5546 5545 5545 5544 5544 5544 5544 5544 5545 5545 5546 5546 5546 5547 5548 5549 5549 5550 5551 5553 5555 5557 5559 5561 5563 5565 5567 5569 5571 5573 5574 5576 5578 5580 5581 5583